Tracking 29892 objects as of 21-Nov-2024
HD Live streaming from Space Station
objects crossing your sky now

FENGYUN 1C DEB

Track FENGYUN 1C DEB now!
10-day predictions


NORAD ID: 30386
Int'l Code: 1999-025ACZ
Perigee: 834.4 km
Apogee: 1,298.8 km
Inclination: 98.7 °
Period: 106.4 minutes
Semi major axis: 7437 km
RCS: 0.0481 m2 (small)
Launch date: May 10, 1999
Source: People's Republic of China (PRC)
Launch site: Taiyaun Space Center, China (TSC)

Note: This is SATELLITE DEBRIS
Your satellite tracking list
Your tracking list is empty




NASA's NSSDC Master Catalog

Two Line Element Set (TLE):
1 30386U 99025ACZ 24325.32032098  .00003262  00000-0  35991-2 0  9990
2 30386  98.6925 260.2528 0312195  77.8568  78.9447 13.53483325875835
Source of the keplerian elements: AFSPC